Location: Zlin
(49.2330°N, 17.6670°E)
Time: 09:22:39
(UTC+01:00)

Envisat - Visible Passes

Search period start: 23 February 2024 00:00
Search period end: 04 March 2024 00:00
Orbit: 762 x 764 km, 98.3° (Epoch: 22 February)

Date Brightness Start Highest point End Pass type
(mag) Time Alt. Az. Time Alt. Az. Time Alt. Az.
23 Feb 5.5 02:27:11 10° NE 02:28:54 18° NE 02:28:54 18° NE visible
23 Feb 3.9 04:05:50 10° N 04:09:04 35° NNW 04:09:04 35° NNW visible
24 Feb 4.1 03:28:22 10° NNE 03:31:28 38° NNE 03:31:28 38° NNE visible
24 Feb 4.6 05:08:39 10° NNW 05:11:39 17° NW 05:11:39 17° NW visible
25 Feb 4.8 02:51:15 10° NNE 02:53:53 28° NE 02:53:53 28° NE visible
25 Feb 4.0 04:30:31 10° N 04:34:03 29° NW 04:34:03 29° NW visible
26 Feb 5.6 02:14:37 10° NE 02:16:17 17° ENE 02:16:17 17° ENE visible
26 Feb 3.7 03:52:51 10° N 03:56:28 43° NNW 03:56:28 43° NNW visible
26 Feb 4.9 05:34:27 10° NW 05:35:49 11° NW 05:36:38 11° WNW visible
27 Feb 4.0 03:15:30 10° NNE 03:18:52 41° NNE 03:18:52 41° NNE visible
27 Feb 4.3 04:55:24 10° NNW 04:59:02 20° WNW 04:59:02 20° WNW visible
28 Feb 4.9 02:38:30 10° NNE 02:41:16 26° ENE 02:41:16 26° ENE visible
28 Feb 3.7 04:17:27 10° N 04:21:26 36° NW 04:21:26 36° NW visible
29 Feb 5.7 02:02:11 10° NE 02:03:41 14° ENE 02:03:41 14° ENE visible
29 Feb 3.4 03:39:54 10° N 03:43:51 54° N 03:43:51 54° N visible
29 Feb 4.7 05:20:39 10° NNW 05:23:07 14° NW 05:24:01 13° WNW visible
01 Mar 4.1 03:02:39 10° NNE 03:06:15 41° NE 03:06:15 41° NE visible
01 Mar 4.1 04:42:13 10° N 04:46:19 25° WNW 04:46:26 25° WNW visible
02 Mar 5.1 02:25:49 10° NE 02:28:39 23° ENE 02:28:39 23° ENE visible
02 Mar 3.4 04:04:26 10° N 04:08:50 46° NW 04:08:50 46° NW visible
03 Mar 5.8 01:50:01 10° ENE 01:51:04 12° ENE 01:51:04 12° ENE visible
03 Mar 3.3 03:26:59 10° NNE 03:31:15 63° NNE 03:31:15 63° NNE visible
03 Mar 4.5 05:07:14 10° NNW 05:10:25 17° NW 05:11:25 16° WNW visible
